Regional Weather Roundup
Issued by NWS

Home | Current Version | Previous Version | Text Only | Print | Product List | Glossary On
Versions: 1 2 3 4 5 6 7 8 9 10 11 12 13 14 15 16 17 18 19 20 21 22 23 24 25 26 27 28 29 30 31 32 33 34 35 36 37 38 39 40 41 42 43 44 45 46 47 48 49 50
000
ASUS43 KLMK 281110
RWRKY
KENTUCKY REGIONAL WEATHER ROUNDUP
NATIONAL WEATHER SERVICE LOUISVILLE KY
700 AM EDT SAT MAR 28 2015

NOTE "FAIR" INDICATES FEW OR NO CLOUDS BELOW 12,000 FEET
WITH NO SIGNIFICANT WEATHER AND/OR OBSTRUCTIONS TO VISIBILITY.

KYZ001>023-026-027-061>063-070>075-281200-
WESTERN AND SOUTH CENTRAL KENTUCKY

CITY           SKY/WX    TMP DP  RH WIND       PRES   REMARKS
PADUCAH        CLEAR     25  22  88 CALM      30.21R
HENDERSON      CLEAR     27  18  69 NE8       30.23R WCI  18
OWENSBORO      CLEAR     26  15  63 N7        30.23R WCI  18
HOPKINSVILLE   CLEAR     27  19  70 N2        30.20R
BOWLING GREEN  CLEAR     26  17  68 N3        30.20R
GLASGOW        CLEAR     24  12  61 N3        30.18R
$$

KYZ024-025-028>034-038-045-046-053-281200-
NORTH CENTRAL KENTUCKY

CITY           SKY/WX    TMP DP  RH WIND       PRES   REMARKS
LOUISVILLE/SDF PTCLDY    24  13  62 N13       30.21R WCI  12
LOUISVILLE/LOU CLEAR     23  13  65 N9        30.21R WCI  13
FORT KNOX      CLEAR     21  10  62 NW8       30.18R WCI  12
$$

KYZ035>037-039>044-047>052-055>060-089>105-281200-
NORTHEAST KENTUCKY

CITY           SKY/WX    TMP DP  RH WIND       PRES   REMARKS
LEXINGTON      CLEAR     20  13  74 N6        30.16R WCI  12
COVINGTON      CLEAR     20  14  77 N8        30.17R WCI  10
FRANKFORT      CLEAR     21  11  65 N6        30.17R WCI  13
$$

KYZ054-064>069-076>088-106>120-281200-
SOUTHEAST KENTUCKY

CITY           SKY/WX    TMP DP  RH WIND       PRES   REMARKS
JACKSON        CLOUDY    25  14  63 NW6       30.10R WCI  18
LONDON         CLOUDY    27  12  53 N5        30.12R WCI  22
SOMERSET       CLOUDY    27  18  69 N6        30.17R WCI  20
MIDDLESBORO    CLOUDY    29  14  54 N5        30.11R WCI  24
MONTICELLO     MOSUNNY   26  16  66 N7        30.18R WCI  18
$$



USA.gov is the U.S. government's official web portal to all federal, state and local government web resources and services.